{"data":{"norad_id":68715,"epoch":"2026-05-25T04:00:03.998880Z","epoch_age_seconds":61404,"freshness":"FRESH","line1":"1 68715U 26081S   26145.16671295 -.01914878  00000+0 -50484-1 0  9990","line2":"2 68715  53.1598  38.9061 0001490  94.3320 175.8141 15.41343591  6012","mean_motion":15.41343591,"eccentricity":0.000149,"inclination_deg":53.1598,"raan_deg":38.9061,"arg_perigee_deg":94.332,"mean_anomaly_deg":175.8141,"bstar":-0.050484,"rev_number":601,"period_min":93.424983787408,"perigee_km":441.12671758093,"apogee_km":443.15916100283,"semimajor_km":6820.2799392919,"source":"CELESTRAK","updated_at":"2026-05-25T13:38:22.001175Z"}}